Overview Statistics Trail Chart Weather Telemetry Raw packets
 

This is the latest recevied weather packets stored in our database for station/object LU1MQF-13. If no packets are shown the sender has not sent any weather packets the latest 10 day(s).

<< 27 28 29 30 31 32 33 >>
Time Temp. Humidity Pressure Rain* Wind** Luminosity Snow
1777382811 17.22° C 42% 939.9 hPa - - - -
1777381012 15° C 43% 940 hPa - - - -
1777380111 15° C 43% 940.2 hPa - - - -
1777379211 13.89° C 40% 940.2 hPa - - - -
1777378311 12.78° C 40% 940.2 hPa - - - -
1777377411 12.78° C 40% 940 hPa - - - -
1777376511 12.78° C 41% 940 hPa - - - -
1777375611 12.78° C 41% 939.8 hPa - - - -
1777374711 12.78° C 41% 940 hPa - - - -
1777373813 12.78° C 41% 940 hPa - - - -
1777372911 12.78° C 41% 940.2 hPa - - - -
1777372012 12.78° C 41% 940.1 hPa - - - -
1777371111 13.89° C 46% 940.1 hPa - - - -
1777370210 13.89° C 39% 939.9 hPa - - - -
1777369311 13.89° C 38% 940.1 hPa - - - -
1777368411 13.89° C 38% 940.2 hPa - - - -
1777367511 13.89° C 38% 940.2 hPa - - - -
1777366611 13.89° C 38% 941.4 hPa - - - -
1777365712 13.89° C 38% 941.4 hPa - - - -
1777364811 13.89° C 38% 941.7 hPa - - - -
1777363910 13.89° C 38% 940.9 hPa - - - -
1777363011 13.89° C 38% 940.8 hPa - - - -
1777362111 13.89° C 38% 940.5 hPa - - - -
1777361211 13.89° C 38% 940.6 hPa - - - -
1777360311 13.89° C 38% 940.6 hPa - - - -

* Rain since midnight (hover to see other rain measurements)
** Current wind speed in m/s (hover to see current wind gust speed)